Regional Weather Roundup
Issued by NWS

Home | Current Version | Previous Version | Graphics & Text | Print | Product List | Glossary On
Versions: 1 2 3 4 5 6 7 8 9 10 11 12 13 14 15 16 17 18 19 20 21 22 23 24 25 26 27 28 29 30 31 32 33 34 35 36 37 38 39 40 41 42 43 44 45 46 47 48 49 50
000
ASUS43 KOAX 221302
RWRNE

WEATHER ROUNDUP FOR NEBRASKA
NATIONAL WEATHER SERVICE OMAHA NE
800 AM CDT TUE JUL 22 2014

NOTES: SATELLITE DATA IS BEING USED TO AUGMENT CLOUD COVER ABOVE
       12000 FEET.
       "FAIR" INDICATES FEW OR NO CLOUDS BELOW 12,000 FEET WITH NO
       SIGNIFICANT WEATHER AND/OR OBSTRUCTIONS TO VISIBILITY.

  * THESE STATIONS DO NOT REPORT WEATHER SUCH AS RAIN...SNOW OR FOG.

NEZ001>004-019>022-054>056-221400-
NEBRASKA PANHANDLE

CITY           SKY/WX    TMP DP  RH WIND       PRES   REMARKS
SCOTTSBLUFF    MOSUNNY   69  60  73 N7        30.23R
ALLIANCE       SUNNY     66  61  84 N10       30.21R
CHADRON        MOSUNNY   66  61  84 S9        30.18F
KIMBALL        SUNNY     64  51  63 NW9       30.24R
SIDNEY         SUNNY     68  52  56 NW8       30.22R
$$

NEZ057>060-069>072-079>082-221400-
SOUTHWEST NEBRASKA

CITY           SKY/WX    TMP DP  RH WIND       PRES   REMARKS
NORTH PLATTE   MOSUNNY   75  59  57 E13       30.07F
IMPERIAL       SUNNY     75  58  55 E10       30.12R
LEXINGTON      SUNNY     76  64  66 NE8       30.09S
MCCOOK         SUNNY     71  64  78 NE3       30.11R
OGALLALA       SUNNY     73  58  61 NE6       30.12R
$$

NEZ005>010-023>029-035>040-094-221400-
NORTH CENTRAL NEBRASKA

CITY           SKY/WX    TMP DP  RH WIND       PRES   REMARKS
VALENTINE      MOSUNNY   72  63  73 N12       30.13R
AINSWORTH      MOSUNNY   73  60  64 SE5       30.09R
BROKEN BOW     MOSUNNY   74  62  66 NE9       30.08F
O`NEILL        PTSUNNY   73  59  62 CALM      30.07S
THEDFORD       PTSUNNY   72  62  72 N8        30.12R
$$

NEZ041-046>049-061>064-073>077-083>087-221400-
SOUTH CENTRAL NEBRASKA

CITY           SKY/WX    TMP DP  RH WIND       PRES   REMARKS
GRAND ISLAND   SUNNY     77  64  64 N10       30.05R
AURORA         SUNNY     78  68  71 N10       30.04R
HASTINGS       SUNNY     76  63  64 N9        30.05R
HEBRON         MOSUNNY   77  69  77 SW7       30.03S
HOLDREGE       MOSUNNY   73  63  70 N6        30.08R
KEARNEY *      SUNNY     75  63  64 N9        30.08R
YORK           SUNNY     77  68  73 N18G25    30.03S
$$

NEZ011>018-030>034-042>045-221400-
NORTHEAST NEBRASKA

CITY           SKY/WX    TMP DP  RH WIND       PRES   REMARKS
NORFOLK        MOSUNNY   74  62  66 NE6       30.00F
ALBION         MOSUNNY   74  58  58 E5        30.03S
BLAIR          PTSUNNY   80  67  65 NW6       29.99R
COLUMBUS *     PTSUNNY   73  64  73 N6        30.03R
TEKAMAH        CLOUDY    81  74  79 N16G23    29.97R
WAYNE          MOSUNNY   74  65  74 CALM      30.00S
$$

NEZ050>053-065>068-078-088>093-221400-
SOUTHEAST NEBRASKA

CITY           SKY/WX    TMP DP  RH WIND       PRES   REMARKS
LINCOLN        MOSUNNY   81  70  69 W8        30.01R
OMAHA EPPLEY   PTSUNNY   83  70  64 W7        29.97R
BEATRICE       MOSUNNY   73  70  91 SW5       30.01F
FALLS CITY     MOSUNNY   78  74  87 CALM      30.01R
NEBRASKA CITY  MOSUNNY   79  73  81 SW10      29.98F
PLATTSMOUTH    MOSUNNY   78  69  74 SW5       29.99R
$$

NEZ044-045-051>053-067-221400-
OMAHA AREA

CITY           SKY/WX    TMP DP  RH WIND       PRES   REMARKS
OMAHA EPPLEY   PTSUNNY   83  70  64 W7        29.97R
BLAIR          PTSUNNY   80  67  65 NW6       29.99R
MILLARD        PTSUNNY   81  72  73 W8        29.96S
OFFUTT AFB     PTSUNNY   81  73  76 SW5       29.97R
PLATTSMOUTH    MOSUNNY   78  69  74 SW5       29.99R
WAHOO          FAIR      80  71  72 N10       29.99R
$$


USA.gov is the U.S. government's official web portal to all federal, state and local government web resources and services.